Wind_Speed
8 8 8 8 8 9 10 10 9 9 8 8 7 7 11 13 12 10 14 14 9 16 17 11 10 15 13 13 10 6 2 8 10 12 14 17 22 20 10 7 3 6 5 4 9
12 11 10 10 10 9 9 9 9 9 8 7 7 8 8 12 15 14 11 12 14 13 16 17 15 17 18 14 12 7 13 11 10 16 18 16 22 21 14 6 2 3 4 5 7
14 13 13 12 11 10 9 9 9 8 8 8 6 7 10 9 16 17 16 15 11 15 19 25 22 17 18 13 14 8 9 7 10 16 17 16 20 18 17 12 8 4 3 8 8
14 14 14 14 13 12 10 9 9 9 8 8 8 6 9 10 9 17 19 17 14 16 18 16 18 16 17 14 16 13 16 11 7 6 13 17 17 12 20 13 9 4 2 4 9
16 16 15 16 16 15 14 12 11 9 8 8 9 8 8 9 8 9 18 20 17 15 14 15 14 18 15 19 20 24 22 13 10 7 4 14 16 11 16 13 13 10 6 1 8
21 19 18 17 17 17 17 15 13 11 8 7 9 9 12 8 6 8 9 18 20 17 16 13 13 18 23 21 25 28 26 16 7 4 9 9 16 15 14 13 12 19 11 6 3
23 23 21 20 19 18 17 15 14 13 11 9 7 9 13 7 9 10 8 11 18 20 19 15 20 24 21 22 26 23 18 10 6 7 13 8 11 18 14 11 16 18 16 9 1
22 23 23 21 21 22 20 16 14 14 13 10 9 10 12 8 12 11 10 11 14 20 21 20 22 26 27 25 27 24 21 13 10 16 16 11 5 16 15 14 17 17 11 8 3
23 24 24 24 22 24 23 19 17 15 14 14 14 14 16 10 10 10 14 13 14 16 23 26 23 23 27 29 30 30 21 18 16 17 15 11 5 12 12 12 15 15 8 4 2
26 27 28 26 25 27 28 25 22 20 16 15 14 18 20 16 15 12 17 11 14 17 20 23 25 25 23 25 21 21 19 20 16 18 19 13 5 8 6 8 11 7 6 3 2
33 31 32 32 28 28 30 31 29 26 22 21 18 19 21 22 20 17 19 15 15 16 15 20 22 20 23 20 22 23 22 23 22 26 23 15 10 5 5 6 4 4 4 3 3
41 40 39 38 37 34 32 32 32 31 26 27 25 20 25 24 20 20 20 16 16 15 19 18 11 15 24 23 23 26 23 24 24 29 27 23 20 10 10 3 10 5 1 3 6
44 44 42 43 43 41 40 37 36 35 30 24 29 26 28 26 19 21 20 21 19 20 18 15 12 17 21 25 25 27 24 26 23 33 31 28 24 15 12 8 10 7 5 4 7
49 48 46 43 43 44 44 43 41 39 38 25 33 32 31 28 25 26 20 21 22 21 21 20 19 21 21 24 26 29 22 30 32 37 39 39 32 26 15 8 11 7 7 5 5
53 53 52 50 49 47 45 44 45 44 46 37 36 34 34 33 29 29 29 29 27 24 25 17 22 23 22 14 23 21 29 31 37 41 41 44 39 29 21 16 10 10 10 5 6
53 54 56 55 53 51 52 49 47 47 52 44 42 42 35 34 33 33 34 35 34 32 27 25 27 26 23 23 23 19 33 35 42 45 52 41 42 27 24 13 13 19 11 8 7
54 54 57 57 55 56 54 57 55 54 52 49 51 48 44 39 38 39 39 38 36 36 32 31 28 27 26 26 28 27 39 43 50 54 45 43 45 21 28 19 21 17 12 9 9
59 57 58 58 58 59 58 59 61 58 56 56 54 51 49 48 49 48 46 44 42 39 36 38 36 31 28 27 29 28 34 45 49 50 46 42 47 23 22 21 21 19 17 17 13
65 66 65 64 61 62 66 65 64 63 61 58 57 56 53 52 52 53 50 47 45 43 42 41 38 31 35 32 34 31 38 31 46 49 50 44 42 33 31 26 23 24 21 19 14
69 69 68 68 67 69 69 70 69 69 67 64 61 62 61 57 57 55 54 54 52 52 47 46 45 40 35 40 42 38 28 37 43 48 50 41 39 29 31 31 29 28 23 18 17
74 72 71 70 70 69 70 71 71 72 74 72 69 67 66 65 63 60 60 61 59 56 55 53 53 44 44 50 43 41 41 42 42 44 41 38 31 31 28 32 30 30 24 20 15
79 77 76 74 72 72 71 73 76 76 79 81 80 76 73 73 71 69 65 67 64 63 60 58 59 54 52 45 43 46 44 45 46 39 36 36 34 24 31 27 35 31 34 28 24
54 57 63 66 60 63 66 70 73 75 79 84 85 84 82 80 77 76 74 72 69 67 67 63 64 59 58 55 57 58 53 47 41 41 44 41 32 20 22 27 38 40 38 35 31
46 45 43 42 40 47 54 62 68 75 80 83 87 88 88 86 84 84 82 78 75 74 73 70 69 65 62 57 57 60 57 51 49 54 44 43 33 22 23 28 36 45 44 35 38
40 36 32 26 27 30 43 53 60 68 71 79 83 90 91 88 87 88 89 86 82 81 80 77 74 72 67 64 65 62 60 55 57 52 52 35 40 28 24 30 30 41 48 46 44
31 26 23 21 17 21 31 37 40 54 62 60 64 78 86 88 89 87 91 92 88 84 84 83 80 78 74 70 68 71 66 59 58 54 53 45 46 33 27 33 37 41 48 50 50
26 24 21 15 17 17 18 27 32 32 33 44 55 60 65 80 85 87 91 94 93 88 85 85 85 83 81 77 75 74 69 64 61 58 55 52 42 37 35 34 39 39 41 47 50
Wind_Direction
311 308 311 316 319 321 317 312 317 333 321 302 286 281 241 238 241 239 226 227 251 228 229 217 204 218 213 160 161 151 156 128 85 81 72 72 79 72 52 26 80 141 162 178 162
290 290 291 293 296 300 306 304 302 302 310 326 302 281 274 235 233 239 246 250 244 245 239 240 220 216 221 177 179 126 117 151 127 81 74 71 70 57 39 38 39 130 198 194 201
283 281 280 278 277 279 282 281 281 284 295 292 312 288 278 268 230 231 233 240 237 233 225 230 234 212 230 203 184 180 170 160 137 92 78 70 60 65 34 5 6 25 183 213 211
279 277 274 271 268 266 266 266 270 269 270 280 282 281 271 267 264 236 238 236 241 231 238 238 235 224 227 198 168 171 179 161 122 57 69 66 70 76 52 2 348 350 342 228 217
280 278 273 269 266 267 265 264 259 261 262 258 264 257 262 270 250 256 238 238 235 246 240 243 220 223 221 203 189 186 182 182 146 128 71 78 65 108 74 34 19 354 354 5 206
278 276 272 270 269 266 263 263 263 249 253 251 244 244 255 258 263 261 240 235 238 238 252 231 220 210 218 204 192 190 200 216 250 290 298 84 79 102 82 50 21 20 346 349 148
282 278 273 269 268 265 260 258 259 255 249 247 235 235 247 243 268 260 250 241 237 240 241 229 213 211 217 212 210 218 224 214 209 279 279 188 90 84 93 39 9 349 353 341 90
287 284 278 271 267 267 261 255 255 256 256 245 234 236 247 243 257 264 266 252 241 230 234 240 228 207 210 216 214 222 228 248 248 277 287 197 192 81 72 53 14 346 336 343 356
281 282 280 273 264 262 258 254 256 253 248 246 242 240 250 224 245 260 255 247 252 246 234 231 238 237 211 218 216 220 222 230 255 257 230 204 228 80 62 39 360 333 323 8 18
276 277 279 277 268 259 257 254 248 254 255 245 239 241 247 249 240 246 252 243 244 244 244 241 239 245 234 235 229 225 214 225 254 241 240 220 165 90 55 13 348 1 316 75 171
272 272 274 273 271 266 264 262 256 251 249 253 244 243 242 247 239 233 251 253 241 251 257 255 243 241 254 244 231 228 219 216 233 228 246 234 222 165 282 325 294 297 345 85 141
272 273 275 272 270 266 263 265 265 260 248 252 253 234 249 242 246 247 243 246 250 247 246 255 273 247 243 236 227 229 221 204 219 224 229 236 238 219 230 290 290 242 236 107 144
270 270 270 270 267 266 263 258 260 262 257 238 248 242 237 242 236 242 243 244 242 243 248 250 242 238 234 233 224 222 219 195 206 216 227 237 240 241 211 218 253 192 172 150 154
270 269 267 265 264 264 261 261 259 258 258 238 237 248 249 246 238 244 235 244 243 239 238 237 234 240 235 226 226 221 215 197 199 206 217 234 242 243 234 195 184 187 180 158 174
269 267 266 263 261 262 260 259 258 257 257 254 246 242 243 249 245 245 238 235 241 243 241 245 244 245 244 250 237 214 214 202 204 210 219 232 242 237 234 180 169 192 164 141 178
270 269 266 263 260 257 259 257 256 256 255 253 246 248 244 242 239 237 241 237 236 236 233 233 227 236 237 234 236 207 211 205 206 212 223 228 241 233 230 181 155 167 178 173 198
276 271 269 265 264 260 253 255 253 250 254 253 250 247 249 246 245 242 241 244 244 244 240 238 240 238 239 236 235 215 210 209 209 213 240 224 234 226 227 230 194 186 191 183 191
270 269 266 268 263 261 259 253 251 251 249 251 253 250 244 245 244 243 243 243 240 239 233 236 235 239 241 240 244 239 224 226 226 229 239 228 235 237 217 229 223 176 169 176 188
273 266 263 260 260 255 255 254 252 250 251 249 250 251 249 243 244 244 243 243 242 242 242 243 239 238 240 233 236 235 236 239 234 235 239 245 245 239 226 216 200 189 193 183 181
267 268 262 260 254 253 250 251 248 249 249 249 246 247 247 244 240 240 241 241 239 238 233 234 234 227 230 235 227 229 236 236 236 235 238 246 247 238 224 214 206 206 217 182 177
277 271 266 263 259 254 249 245 244 244 243 242 242 242 242 243 242 239 237 241 241 241 238 235 234 224 223 231 231 228 229 232 234 240 242 251 254 247 233 220 210 218 218 205 197
284 279 272 268 264 257 251 246 242 238 239 238 237 237 237 237 237 236 233 236 238 239 238 234 236 230 228 230 234 231 230 237 239 244 250 248 246 249 242 233 226 226 220 213 210
294 290 282 273 269 261 252 246 241 239 235 237 235 233 232 230 231 233 233 232 233 236 239 237 237 234 232 224 224 228 229 230 240 242 241 247 250 235 230 227 230 231 229 231 226
307 306 303 291 272 257 246 239 235 234 232 231 233 232 230 228 226 226 230 229 228 230 233 236 237 235 232 225 228 231 231 233 235 242 245 246 248 232 218 230 229 226 228 221 226
308 309 311 308 287 254 242 234 231 231 232 230 228 229 229 228 227 223 224 227 226 226 229 231 234 235 234 230 225 228 230 230 238 243 245 249 253 242 221 224 236 230 230 226 230
307 306 312 312 290 274 258 240 236 234 233 229 234 229 228 229 226 225 223 221 222 222 225 228 229 231 232 233 223 226 233 235 238 238 245 242 248 245 225 218 225 229 232 233 234
307 307 306 299 292 291 279 269 251 233 236 244 241 232 234 229 228 226 224 220 219 219 219 224 228 227 228 228 228 225 233 234 236 239 239 241 242 249 241 225 228 237 239 237 240
Height
5888 5887 5885 5884 5882 5881 5879 5877 5876 5874 5872 5871 5870 5869 5870 5870 5871 5871 5871 5871 5871 5874 5875 5878 5881 5881 5881 5883 5884 5885 5885 5890 5892 5892 5892 5892 5889 5887 5888 5888 5889 5890 5892 5892 5893
5886 5884 5883 5882 5881 5879 5878 5876 5875 5873 5872 5871 5869 5868 5867 5868 5868 5869 5869 5869 5871 5872 5875 5876 5878 5880 5880 5883 5884 5885 5886 5888 5888 5889 5890 5892 5890 5889 5890 5890 5890 5891 5891 5892 5893
5882 5880 5879 5878 5877 5876 5875 5874 5873 5872 5870 5869 5868 5866 5865 5865 5866 5866 5866 5867 5868 5870 5871 5872 5872 5878 5878 5882 5884 5886 5887 5886 5886 5886 5888 5891 5892 5890 5890 5890 5891 5891 5890 5891 5891
5878 5877 5876 5875 5874 5873 5872 5871 5870 5869 5868 5867 5866 5865 5863 5863 5865 5864 5863 5865 5866 5866 5867 5869 5871 5877 5878 5882 5883 5886 5887 5886 5885 5880 5884 5888 5893 5893 5892 5895 5894 5892 5890 5890 5890
5875 5874 5872 5871 5870 5869 5868 5867 5867 5866 5866 5865 5864 5863 5862 5861 5861 5861 5861 5862 5864 5865 5866 5867 5871 5874 5877 5879 5881 5883 5884 5884 5882 5880 5883 5887 5891 5894 5893 5895 5894 5894 5892 5890 5891
5871 5870 5868 5867 5866 5865 5864 5863 5863 5863 5862 5862 5861 5861 5860 5860 5859 5858 5858 5859 5860 5862 5863 5865 5868 5871 5871 5876 5878 5879 5880 5881 5881 5877 5879 5885 5887 5892 5892 5894 5894 5894 5894 5892 5889
5867 5865 5864 5863 5861 5860 5859 5859 5859 5859 5859 5859 5859 5858 5858 5858 5857 5856 5856 5856 5857 5859 5860 5863 5864 5866 5871 5873 5873 5875 5879 5881 5881 5879 5879 5885 5889 5887 5891 5892 5893 5894 5895 5892 5890
5862 5860 5858 5858 5857 5856 5854 5854 5855 5855 5855 5856 5855 5855 5854 5855 5854 5854 5854 5854 5854 5855 5857 5858 5859 5863 5865 5868 5870 5873 5876 5880 5881 5880 5879 5885 5888 5886 5887 5890 5893 5894 5892 5891 5890
5857 5856 5854 5853 5852 5851 5849 5850 5850 5850 5851 5852 5852 5851 5850 5851 5851 5851 5851 5852 5851 5852 5853 5852 5855 5858 5862 5863 5866 5868 5874 5878 5880 5880 5880 5883 5885 5881 5885 5888 5890 5893 5891 5889 5889
5852 5851 5849 5847 5847 5845 5843 5844 5845 5845 5847 5846 5847 5848 5846 5847 5848 5848 5846 5848 5849 5849 5849 5850 5851 5853 5857 5857 5861 5866 5872 5875 5877 5877 5878 5880 5881 5880 5884 5888 5890 5893 5891 5889 5889
5845 5844 5842 5841 5840 5839 5838 5838 5839 5840 5840 5841 5843 5842 5841 5841 5843 5844 5843 5844 5845 5846 5846 5846 5847 5850 5855 5857 5861 5864 5868 5872 5874 5875 5875 5877 5875 5877 5882 5885 5892 5891 5891 5890 5889
5837 5836 5834 5832 5831 5830 5831 5830 5829 5831 5834 5833 5834 5837 5834 5835 5838 5839 5839 5841 5841 5842 5842 5843 5846 5849 5851 5854 5856 5858 5863 5868 5873 5873 5874 5874 5874 5875 5877 5881 5889 5891 5890 5889 5889
5825 5825 5825 5823 5822 5822 5821 5821 5820 5821 5823 5829 5826 5829 5828 5830 5833 5833 5835 5835 5837 5837 5839 5841 5844 5843 5845 5848 5852 5855 5859 5866 5870 5869 5870 5870 5871 5873 5874 5875 5885 5887 5887 5886 5888
5811 5811 5812 5812 5813 5811 5812 5811 5810 5811 5811 5823 5819 5820 5821 5823 5827 5825 5829 5830 5830 5834 5834 5836 5838 5839 5840 5842 5847 5850 5858 5861 5863 5864 5866 5865 5867 5868 5872 5873 5881 5883 5883 5884 5886
5796 5794 5796 5798 5798 5798 5800 5800 5799 5800 5798 5809 5810 5811 5812 5815 5819 5819 5821 5822 5824 5827 5830 5834 5834 5836 5837 5842 5842 5851 5852 5857 5859 5858 5860 5858 5858 5865 5866 5868 5875 5881 5882 5883 5884
5779 5778 5778 5779 5782 5786 5784 5785 5788 5790 5782 5793 5796 5797 5803 5805 5808 5809 5811 5814 5818 5818 5822 5824 5826 5828 5833 5835 5836 5846 5846 5849 5851 5852 5845 5854 5853 5858 5860 5867 5873 5878 5881 5881 5884
5761 5761 5758 5761 5765 5765 5769 5768 5771 5771 5776 5778 5779 5787 5791 5795 5797 5799 5801 5804 5809 5811 5817 5818 5820 5823 5826 5828 5830 5835 5837 5837 5837 5836 5834 5848 5847 5852 5857 5863 5869 5872 5877 5879 5882
5743 5742 5738 5741 5746 5746 5747 5751 5751 5757 5760 5761 5765 5772 5777 5780 5784 5787 5791 5792 5796 5801 5807 5807 5811 5816 5820 5823 5826 5828 5830 5827 5826 5828 5833 5842 5834 5848 5858 5860 5862 5864 5871 5876 5879
5719 5718 5716 5723 5721 5724 5725 5728 5736 5738 5740 5746 5750 5753 5759 5767 5770 5773 5777 5783 5788 5792 5797 5799 5803 5810 5810 5816 5815 5821 5816 5831 5825 5827 5827 5831 5834 5842 5849 5855 5858 5860 5863 5869 5875
5691 5690 5691 5694 5697 5699 5701 5707 5712 5714 5720 5724 5730 5734 5740 5747 5753 5758 5763 5765 5771 5773 5781 5786 5790 5797 5803 5801 5802 5807 5819 5816 5815 5816 5817 5821 5825 5832 5842 5851 5857 5857 5860 5865 5870
5659 5658 5662 5663 5667 5669 5674 5680 5688 5690 5693 5701 5707 5714 5720 5726 5733 5741 5746 5749 5755 5760 5766 5772 5776 5788 5788 5785 5798 5802 5803 5804 5807 5809 5814 5817 5818 5829 5836 5844 5850 5854 5857 5859 5862
5622 5622 5624 5628 5632 5635 5643 5651 5657 5660 5662 5671 5681 5691 5699 5702 5710 5719 5731 5729 5739 5744 5749 5757 5761 5773 5775 5785 5792 5791 5795 5796 5796 5805 5808 5810 5813 5823 5831 5838 5845 5849 5852 5856 5857
5596 5593 5588 5591 5596 5601 5609 5616 5622 5631 5639 5642 5653 5664 5672 5682 5691 5694 5706 5713 5724 5730 5733 5742 5747 5759 5765 5768 5770 5772 5781 5790 5797 5799 5795 5802 5808 5822 5825 5828 5834 5839 5845 5849 5853
5580 5575 5569 5566 5568 5571 5575 5581 5591 5599 5607 5616 5625 5635 5646 5655 5664 5674 5682 5693 5705 5712 5718 5725 5732 5741 5749 5758 5763 5765 5772 5782 5786 5782 5793 5793 5806 5816 5821 5823 5825 5829 5836 5842 5846
5569 5564 5558 5555 5552 5553 5552 5558 5563 5571 5578 5588 5597 5604 5617 5631 5640 5646 5660 5670 5682 5692 5699 5707 5715 5724 5733 5742 5746 5751 5760 5770 5769 5778 5779 5798 5795 5809 5816 5818 5820 5824 5828 5833 5836
5561 5558 5555 5550 5547 5544 5541 5545 5548 5553 5557 5566 5571 5582 5593 5604 5614 5627 5636 5649 5661 5672 5681 5688 5697 5706 5718 5725 5734 5736 5747 5758 5761 5767 5772 5784 5784 5800 5808 5809 5811 5813 5818 5823 5827
5554 5551 5549 5547 5543 5542 5540 5538 5541 5544 5548 5553 5556 5564 5570 5579 5591 5603 5612 5627 5640 5652 5662 5671 5678 5687 5700 5709 5714 5723 5734 5746 5752 5756 5762 5769 5783 5790 5796 5801 5804 5807 5809 5813 5818